MAZAALAI (NUMSAT-1) (42822 NORAD) Tracking and Keplerian Element Data

This shows tracking and keplerian element data for the satellite.

Feedback or suggestion? Click here.




ElementValue
Catalog42822
NameMAZAALAI (NUMSAT-1)
Epoch Orbit8236
Epoch Day349.56323568
Epoch Year2018
RAAN152.6422
Inclination51.6322
Eccentricity0.0003084
Argument of Perigee178.0123
Mean Anonmoly182.089
Mean Motion15.78092028
Decay Rate0.00041669
L11 42822U 98067MW 18349.56323568 .00041669 00000-0 24180-3 0 9995
L22 42822 51.6322 152.6422 0003084 178.0123 182.0890 15.78092028 82367

Live tracking and technical data element details for MAZAALAI (NUMSAT-1) (NORAD 42822). MAZAALAI (NUMSAT-1) can be tracked NOW for your location showing map with azimuth and elevation plus other details from your city location.

Track the satellite on the map from your city or location and see movement details for azimuth, elevation, latitude, longitude, range, height, and movement on the map or in text.







IsCatalogInMostPopularTable: catalog: 42822, numindb: 160
Update: records affected: 1



GetName: 42822 MAZAALAI (NUMSAT-1)

Hit Count: updated at: Sun, 16 Dec 2018 10:17:26 GMT